GFSGBSN_925_temp_015.txt.gz
Temp
9 9 9 8 9 9 9 8 8 10 10 10 10 12 14 14 14 15 16 17 17 18 20 21 21 20 21 21 25 31 31 31 31 30 30 30 31 31 32 34 35 35 36 37 36 36 36
9 8 8 8 8 9 10 9 9 10 10 10 10 11 12 13 15 15 16 17 18 19 20 20 19 17 16 22 30 32 32 31 31 30 31 31 32 33 34 34 34 36 37 38 38 35 37
9 9 8 8 8 8 9 9 9 9 10 10 10 11 12 13 14 15 17 18 19 20 20 19 18 13 19 24 31 32 32 31 32 32 31 33 34 33 34 33 36 36 35 37 38 39 36
9 9 9 9 9 9 9 8 8 9 9 10 10 11 13 14 15 15 16 18 20 21 21 19 15 15 18 28 31 31 32 32 33 33 33 34 35 32 33 34 35 34 34 33 37 38 38
9 9 9 9 9 9 9 9 9 9 9 9 9 10 11 14 15 16 17 19 21 21 21 17 15 16 22 30 28 31 33 33 34 34 34 35 34 32 33 32 30 32 31 33 35 38 37
9 9 9 9 9 9 9 9 9 9 9 9 10 10 10 13 15 16 17 21 21 17 18 16 18 20 24 29 33 33 33 34 33 33 33 33 31 30 31 29 29 30 32 33 34 37 37
9 9 9 9 9 9 9 9 9 9 9 8 8 9 10 12 15 16 15 17 20 20 20 24 24 26 30 33 34 34 35 34 33 32 30 31 29 29 30 32 32 33 33 34 36 38 32
9 9 9 9 9 9 9 9 9 9 9 8 8 9 9 13 16 18 17 16 23 25 24 27 28 28 28 30 31 34 36 32 32 30 31 30 30 31 33 33 33 34 33 34 36 38 32
9 9 9 9 9 9 9 9 9 9 9 9 9 9 10 11 17 18 16 19 24 26 23 25 28 28 29 30 30 32 34 33 32 30 31 30 31 34 34 33 34 33 33 34 34 37 34
9 9 9 9 9 8 9 9 9 9 9 9 9 10 10 10 18 15 17 21 23 25 20 26 29 30 30 30 30 33 35 33 32 31 32 31 33 34 33 33 34 32 35 35 36 36 33
9 9 9 9 9 9 9 9 9 9 9 9 9 10 10 10 8 12 19 19 21 23 21 33 33 35 31 30 33 33 35 33 32 32 31 31 33 33 33 34 35 34 35 36 36 35 33
9 9 9 9 9 9 9 9 9 9 9 9 9 10 10 10 10 15 17 18 21 21 22 31 35 34 31 31 32 35 33 34 34 33 32 32 34 34 34 35 36 36 35 35 35 34 32
8 8 8 8 8 8 8 8 8 8 8 9 10 10 10 9 11 18 17 18 20 21 30 33 33 34 33 32 32 32 33 32 31 30 30 32 33 34 36 34 34 35 31 31 31 31 30
8 8 8 8 8 8 8 8 8 8 8 8 9 11 13 12 14 15 15 18 19 26 26 31 31 33 32 33 33 33 32 31 32 31 29 29 29 33 35 34 33 33 33 31 28 30 31
8 8 7 8 8 8 8 8 8 8 8 8 9 10 11 15 16 16 17 17 21 24 27 28 27 30 32 34 33 33 32 32 32 32 30 30 30 35 36 36 35 32 32 34 30 31 30
7 7 7 7 7 7 7 7 7 7 8 8 7 10 13 18 18 18 17 17 21 24 24 23 21 26 25 26 29 32 32 34 33 34 33 31 29 33 36 36 35 34 34 32 33 30 30
7 7 7 7 7 7 7 7 7 7 8 9 8 12 17 19 20 18 17 18 20 22 23 23 23 23 24 26 27 27 31 35 35 35 34 33 31 32 33 34 33 33 33 32 31 32 31
7 7 7 7 7 7 7 7 7 7 7 9 10 11 16 16 15 19 19 20 19 21 23 22 23 23 23 24 24 26 28 30 36 36 34 33 31 30 32 34 36 35 32 31 30 28 29
7 7 7 7 7 7 7 7 7 7 7 7 9 11 14 16 15 17 19 20 21 21 22 22 22 24 24 23 23 25 27 30 32 32 34 33 32 29 30 31 34 34 34 32 33 28 28
6 6 6 7 7 7 7 7 7 7 7 7 8 10 14 15 17 17 17 15 14 17 17 19 20 20 19 20 21 23 24 27 30 32 29 30 32 32 30 30 32 32 34 34 32 31 31
6 6 6 6 6 7 7 7 7 8 7 7 8 10 12 11 12 12 14 12 14 15 16 16 17 16 15 15 16 19 20 18 21 28 30 29 31 32 32 34 33 34 34 35 33 33 30
6 6 6 6 6 6 7 7 7 7 7 7 7 8 10 9 11 12 13 15 15 16 16 14 15 14 13 14 14 13 15 16 16 20 20 22 27 29 30 33 34 34 35 35 35 35 34
6 6 6 6 6 6 6 6 7 7 7 7 8 8 7 7 10 10 11 13 13 13 14 13 14 15 13 15 13 13 14 16 17 17 18 21 24 27 28 31 31 30 33 34 34 35 34
6 6 6 6 6 6 6 6 7 7 7 7 7 7 7 8 9 10 12 13 13 13 14 14 15 15 15 16 16 16 18 18 20 21 22 22 23 25 26 28 27 32 33 35 34 34 34
6 6 6 6 6 6 6 6 7 7 7 7 7 6 6 7 8 10 12 12 12 13 14 14 16 15 14 15 13 14 18 20 22 24 24 25 24 24 25 27 29 31 32 34 32 32 33
6 6 7 6 6 6 6 6 7 7 7 7 7 7 6 5 8 11 10 10 11 11 12 13 14 13 12 14 12 13 15 17 19 23 27 27 26 26 25 26 27 30 33 33 34 30 32
7 7 6 6 6 6 6 7 7 7 7 7 7 7 5 5 6 8 9 10 11 11 10 11 11 11 10 13 12 12 12 17 18 19 23 25 26 26 26 27 28 31 32 31 29 28 31
7 7 7 7 7 7 6 6 7 7 7 7 7 7 6 6 7 9 10 9 11 11 10 11 9 9 10 11 13 12 13 16 17 18 19 21 24 25 26 26 27 28 30 29 27 30 32
7 7 7 7 7 7 6 6 6 6 6 6 7 8 7 6 7 8 8 9 10 11 11 10 10 9 9 12 14 14 14 14 15 17 21 20 18 20 24 24 24 22 21 21 25 28 30

GFSGBSN_925_temp_021.txt.gz
Temp
9 9 9 9 9 9 9 9 9 9 10 10 10 10 10 10 11 11 11 12 13 15 17 17 14 17 16 17 20 31 29 28 26 26 27 26 26 25 27 26 29 28 29 31 31 33 32
10 9 9 9 8 9 9 9 9 9 10 10 10 10 11 11 12 12 13 14 14 15 16 15 12 14 14 20 28 29 29 27 28 25 26 26 26 26 27 28 29 30 30 31 32 31 34
9 9 9 9 9 9 9 9 9 9 9 9 10 10 10 11 12 13 14 14 16 18 17 12 10 12 13 21 28 28 28 28 28 28 24 27 28 28 27 28 30 31 31 30 31 32 32
10 9 9 9 9 9 9 9 9 9 9 9 9 10 11 11 11 13 15 17 18 18 18 14 10 12 15 25 25 28 29 29 29 28 30 30 29 26 28 29 29 31 30 30 32 32 32
10 10 9 9 9 9 9 9 9 9 10 10 10 11 11 11 12 14 15 18 17 16 17 13 12 12 17 24 23 27 26 27 29 28 28 29 28 26 28 27 26 26 27 29 30 31 31
9 9 9 9 9 9 9 9 9 9 9 9 9 10 11 11 12 14 16 17 16 14 12 13 15 16 19 26 27 27 27 27 27 27 28 27 25 24 23 24 25 27 28 28 30 32 31
9 9 9 9 9 9 9 9 9 9 9 9 9 10 10 11 13 14 16 16 15 16 16 18 19 20 23 26 29 28 27 26 29 27 24 26 24 23 25 25 27 29 29 28 29 33 31
9 8 9 9 8 8 8 8 9 9 9 9 9 10 10 11 13 14 14 14 15 15 13 18 18 20 23 24 25 27 28 26 26 25 26 25 25 25 27 26 27 27 28 28 29 31 30
8 8 8 8 8 8 8 8 8 8 9 9 10 10 10 11 14 14 11 15 15 14 13 18 21 21 22 22 23 25 27 27 26 25 25 26 26 27 27 27 27 27 27 29 28 30 30
8 8 8 7 8 8 8 8 8 8 8 9 10 10 10 9 14 11 13 15 15 14 16 21 22 23 23 23 22 26 27 28 27 27 26 25 27 28 27 27 27 24 28 29 30 29 28
8 8 8 7 8 8 8 8 8 8 8 8 9 10 10 9 8 8 15 15 15 15 19 27 25 26 23 25 27 25 28 28 27 27 26 26 26 28 27 29 27 28 30 29 30 28 28
7 7 7 7 8 8 8 8 8 8 8 8 9 10 10 9 7 12 13 14 15 18 19 25 27 25 24 25 27 26 27 28 28 28 27 27 28 29 28 29 29 30 30 28 27 25 24
7 7 7 7 7 7 7 7 7 8 8 8 9 11 11 8 9 13 12 12 17 17 23 24 22 22 23 25 27 28 27 26 26 26 26 27 28 29 29 28 28 28 25 24 24 24 27
7 7 7 7 7 7 7 7 7 8 8 8 9 11 11 11 11 10 11 13 16 20 20 21 20 21 24 22 25 23 27 27 27 26 24 26 25 28 28 28 27 25 26 21 24 23 26
7 7 7 7 7 7 7 7 7 7 8 8 9 11 9 13 12 10 9 12 15 17 20 19 20 20 19 20 21 21 21 28 28 25 26 23 25 29 30 29 29 27 26 27 25 24 24
6 6 7 7 7 7 7 7 7 7 7 8 7 7 8 12 11 11 9 11 13 18 18 18 18 18 17 18 19 19 20 23 24 26 26 25 25 26 29 29 29 29 27 28 20 25 26
6 6 7 7 7 7 7 7 7 7 7 8 7 4 12 12 11 8 9 9 14 17 18 17 17 17 18 18 20 19 20 20 20 20 22 25 24 27 27 27 28 26 27 25 24 23 27
6 7 7 7 7 7 7 7 7 7 7 7 5 5 13 11 8 6 8 9 13 15 15 16 17 17 17 17 17 19 19 20 19 19 18 19 19 26 26 27 30 29 29 25 26 25 22
6 7 7 7 7 7 7 7 7 7 6 6 3 3 11 11 6 6 8 12 14 13 13 14 14 15 14 15 16 16 16 18 17 17 16 17 17 22 24 26 27 27 26 29 25 24 28
6 6 6 7 7 7 7 7 7 7 6 6 4 5 4 5 6 7 7 9 10 13 13 13 14 14 13 13 14 14 15 17 16 17 18 15 15 19 22 24 26 26 28 28 28 26 29
6 6 6 6 7 7 7 7 7 7 6 7 5 4 5 5 6 5 7 9 10 9 11 12 12 12 12 11 12 13 14 14 15 16 15 13 13 17 19 20 23 26 27 29 27 29 29
6 6 6 6 7 7 7 7 7 7 6 6 6 6 7 6 6 8 6 9 9 10 10 11 9 11 11 11 12 11 12 12 12 13 13 12 14 14 18 22 24 25 27 28 30 30 29
6 6 6 6 6 7 7 7 7 7 6 6 7 7 6 7 7 7 7 8 8 9 11 11 11 10 11 11 11 10 11 11 12 12 11 12 13 13 15 19 20 24 27 29 30 30 30
6 6 6 6 6 6 7 7 7 7 6 6 7 7 6 6 7 8 8 8 8 8 8 10 11 10 11 11 10 10 9 11 12 12 12 12 13 14 14 17 21 27 30 31 30 29 28
7 7 6 6 6 6 6 7 7 7 7 6 6 6 6 6 7 8 9 8 8 7 7 8 10 10 9 9 9 10 10 12 12 13 12 12 13 14 16 16 20 26 28 30 28 28 28
7 7 7 7 6 6 6 7 7 7 7 7 7 7 6 6 7 8 7 7 6 6 7 9 9 9 9 7 8 9 10 12 13 15 14 13 14 17 15 18 20 25 22 22 28 29 27
7 7 7 7 7 7 6 6 6 6 7 6 6 7 6 6 6 6 6 5 7 6 6 6 7 8 9 7 8 8 9 12 12 14 14 13 14 15 17 18 19 19 19 21 26 29 26
8 7 7 7 7 7 6 6 6 6 6 6 6 6 6 6 7 7 7 7 7 7 7 7 7 7 6 8 9 9 9 10 11 13 14 16 15 15 17 18 18 19 19 20 19 19 24
8 8 8 8 7 7 7 6 6 6 6 6 6 7 6 5 7 7 7 8 8 8 8 7 8 7 8 7 8 8 10 10 11 11 15 14 16 15 19 19 18 18 17 18 18 18 18

GFSGBSN_925_temp_024.txt.gz
Temp
9 9 9 9 9 9 8 9 8 9 9 9 10 10 10 11 11 10 10 10 12 15 16 14 11 12 14 16 20 26 29 25 23 24 24 24 23 24 24 24 26 25 27 29 31 31 29
10 10 9 9 9 9 9 8 8 9 9 10 10 10 10 11 11 11 11 10 11 12 16 14 9 10 12 18 26 27 26 26 22 24 25 25 25 25 26 27 26 28 28 29 30 29 30
10 9 9 9 9 9 9 9 9 9 10 10 10 10 10 11 11 13 14 14 14 13 16 13 9 10 12 20 26 26 25 27 26 24 23 26 26 26 26 27 27 28 28 29 29 30 30
9 9 9 9 9 9 9 9 9 9 9 9 10 10 10 11 11 13 14 16 15 17 16 13 10 11 15 24 24 25 24 25 26 26 27 27 27 26 27 27 27 29 28 28 31 29 31
9 9 9 8 8 8 8 8 8 9 9 9 9 10 10 11 12 12 16 14 14 14 14 11 11 11 18 22 21 26 26 25 25 25 26 27 26 25 26 26 24 24 26 27 29 29 31
9 8 8 8 8 8 8 8 8 8 9 9 9 10 10 10 12 13 16 15 14 12 11 12 13 15 18 24 25 25 24 26 25 23 26 26 23 22 21 22 24 25 26 27 29 31 28
8 8 8 7 7 8 8 8 8 8 9 9 9 10 10 10 12 14 15 15 13 15 14 16 17 18 21 25 26 25 24 25 25 24 22 23 22 22 22 23 26 26 27 29 29 31 29
8 8 7 7 7 7 7 8 8 8 9 9 10 10 10 12 12 15 16 13 12 12 11 15 15 17 21 22 23 26 25 24 24 23 23 22 23 24 24 24 26 26 26 26 28 29 30
8 8 8 7 7 7 8 8 8 8 9 9 10 10 9 11 13 13 11 13 12 11 10 16 17 18 19 19 21 23 24 24 24 23 24 25 24 25 26 25 25 24 25 26 28 29 29
7 8 7 7 7 7 7 8 8 8 8 9 10 10 9 9 13 10 12 13 13 10 14 19 20 21 21 20 20 24 26 26 25 26 23 23 25 26 24 25 25 22 25 28 28 27 26
7 7 7 7 7 7 7 7 7 8 8 9 10 10 9 9 7 7 13 13 12 12 19 25 22 24 21 22 25 22 25 27 25 24 24 24 24 25 25 26 25 27 27 27 28 26 27
7 7 7 6 6 7 7 7 7 7 7 9 10 10 9 9 7 11 10 11 12 17 17 24 24 24 23 23 25 24 25 27 26 26 26 25 25 27 26 27 26 27 28 24 23 22 23
7 6 6 7 7 7 7 7 7 7 7 8 9 10 10 8 9 10 10 9 15 16 21 22 20 20 21 23 25 24 24 24 25 23 23 25 27 27 27 26 26 26 23 22 23 22 26
6 7 7 7 7 7 7 7 7 7 7 8 9 10 10 11 10 11 9 13 15 19 19 19 19 19 21 19 20 20 22 25 24 25 23 24 24 27 26 26 25 23 22 20 22 22 25
6 6 7 7 7 7 7 7 7 7 8 8 9 9 12 12 10 10 8 11 14 16 17 17 18 19 18 18 20 20 20 23 26 24 25 22 24 27 27 27 28 24 25 24 22 22 22
6 7 7 7 7 7 7 7 7 7 7 8 7 6 8 11 10 10 8 9 12 15 15 16 16 17 16 17 18 17 19 17 18 20 21 25 24 25 28 28 27 25 24 24 19 24 23
6 6 7 7 7 7 7 7 7 7 7 8 6 4 11 11 10 6 7 8 11 14 15 14 15 15 16 16 17 17 18 16 18 18 18 17 23 26 25 26 28 24 24 22 23 20 22
6 7 7 7 7 7 7 7 7 7 7 7 4 4 11 10 6 4 6 8 10 12 13 14 14 14 14 15 16 17 17 16 17 17 16 16 16 22 24 26 27 29 27 23 25 23 20
6 7 7 7 7 7 7 7 7 7 6 6 3 3 10 10 4 4 7 10 12 11 11 11 13 13 13 14 15 15 15 16 16 16 15 16 16 20 24 25 26 26 27 24 27 22 25
6 7 7 7 7 7 7 7 7 7 6 6 3 5 3 5 4 6 6 7 10 12 11 10 11 12 11 11 12 13 14 16 16 17 17 15 14 16 18 20 19 20 23 25 26 26 27
6 6 6 6 7 7 7 7 7 6 6 6 3 4 4 4 5 7 8 6 9 9 10 10 9 10 9 10 11 12 13 13 14 15 14 13 15 16 17 18 19 20 21 23 23 27 26
6 6 6 6 7 7 7 7 7 6 6 6 5 6 6 6 6 7 8 6 8 9 9 9 9 8 10 9 11 10 10 11 12 12 12 11 14 14 15 19 20 19 21 23 24 25 25
7 6 6 6 6 6 7 7 7 7 6 6 7 6 5 6 6 6 6 7 8 8 9 10 9 9 9 10 10 10 9 10 10 12 11 11 12 13 15 16 18 21 24 24 25 25 26
7 7 7 7 6 6 6 7 7 7 6 6 6 6 6 6 6 7 8 8 8 8 7 8 8 8 10 9 8 8 6 7 9 10 10 11 11 12 13 15 18 23 22 24 26 27 26
7 7 7 7 7 6 6 6 7 7 7 6 6 5 6 6 7 8 8 9 7 6 6 7 8 9 8 8 8 8 9 10 9 11 11 11 11 12 14 14 19 21 22 20 19 21 27
8 8 8 8 7 7 6 6 6 7 7 6 6 6 5 6 7 8 6 7 6 6 6 7 8 8 9 6 7 8 9 10 12 12 11 11 12 12 12 15 17 22 19 20 19 20 25
8 8 8 8 8 7 6 6 7 7 7 6 6 6 6 6 7 7 7 6 5 7 6 8 7 7 8 7 8 7 8 11 10 12 10 11 11 11 13 14 17 20 18 20 23 23 19
8 8 8 8 8 8 6 6 6 7 7 6 6 6 6 6 7 7 8 7 7 7 6 8 7 6 8 8 9 9 7 9 9 11 12 10 11 11 12 14 16 18 20 21 19 18 19
9 9 8 8 8 8 6 6 6 7 7 6 6 6 6 5 6 7 7 7 8 7 8 7 8 7 6 7 7 7 8 8 9 10 11 11 12 13 14 15 15 17 17 17 18 18 18

GFSGBSN_925_temp_027.txt.gz
Temp
10 10 9 9 9 9 9 9 9 9 9 9 9 10 10 10 11 11 11 11 12 13 14 11 10 9 12 18 23 26 26 24 21 23 25 26 26 26 27 27 28 28 29 30 31 32 33
9 9 9 9 9 8 9 9 8 8 8 8 9 10 11 11 11 12 12 10 13 14 15 12 9 9 13 21 25 25 25 22 22 24 26 26 26 27 28 28 29 30 30 31 32 32 33
9 9 9 8 8 8 8 8 8 8 8 9 10 10 10 10 11 12 12 13 13 15 18 13 9 10 14 23 24 24 22 22 23 24 26 26 27 28 29 29 30 30 30 32 33 33 33
9 8 8 8 8 8 8 7 8 8 9 9 10 10 10 9 11 12 13 14 13 13 15 11 10 11 19 22 23 23 21 22 23 24 26 27 27 29 28 30 30 30 31 32 34 33 33
8 8 8 7 7 7 8 7 8 9 9 9 10 10 10 10 12 14 15 13 11 14 11 11 10 12 22 21 21 23 23 25 23 24 25 26 28 28 28 29 29 29 31 31 32 33 33
8 8 7 7 7 7 7 7 8 8 9 9 9 9 10 11 12 15 15 14 12 11 11 12 12 16 20 25 23 22 24 24 25 25 26 27 27 27 27 28 29 29 29 31 32 34 33
7 7 7 7 7 7 7 7 8 8 9 9 9 9 9 12 12 15 16 14 17 17 15 19 20 20 23 25 24 24 25 26 26 26 26 26 27 27 28 28 29 30 31 31 32 33 33
7 7 7 7 7 7 8 8 8 9 9 9 9 9 9 12 12 14 15 15 12 11 13 17 16 18 20 21 24 25 25 26 26 26 27 25 26 28 28 27 28 29 30 31 31 32 32
7 7 7 7 7 7 8 8 8 8 9 9 9 9 10 11 13 12 10 11 9 10 13 18 18 19 21 21 22 26 27 27 27 27 27 28 28 29 27 27 27 29 29 31 31 32 32
7 7 7 7 7 7 8 8 8 8 9 9 9 9 10 10 12 9 12 11 10 9 18 23 21 22 21 23 23 26 27 28 28 27 28 28 30 28 27 28 28 28 30 30 30 30 31
7 7 7 7 7 7 7 7 7 7 8 9 8 9 10 10 9 10 11 10 9 10 23 25 23 23 23 25 25 24 27 28 29 29 28 28 28 27 27 28 29 29 30 30 31 31 31
7 7 6 7 7 7 7 7 7 7 8 9 9 10 9 10 9 10 10 10 11 19 22 25 24 24 23 24 26 25 26 28 29 28 29 30 28 29 29 29 29 30 29 29 29 31 29
6 6 7 7 7 7 7 7 7 7 8 9 9 10 10 9 11 10 10 12 18 19 23 22 22 22 22 24 25 25 25 26 28 27 27 29 28 29 30 29 29 30 30 29 28 28 29
6 6 7 7 7 7 7 7 7 7 8 8 9 11 12 11 10 9 10 16 17 20 19 19 20 21 23 22 23 23 25 26 29 29 29 28 27 29 30 30 29 29 30 29 28 30 31
6 7 7 7 7 8 8 7 7 8 8 8 9 10 11 10 10 9 14 16 16 15 15 15 19 20 21 21 21 22 24 27 28 28 29 28 29 29 30 30 31 29 29 31 29 27 29
6 7 7 7 7 7 7 7 7 7 7 8 7 6 9 10 10 11 14 12 13 14 14 16 16 18 18 19 21 22 22 19 22 22 22 28 28 30 30 31 31 29 31 28 30 28 28
7 7 7 7 7 7 7 7 8 7 8 8 6 9 11 11 11 13 12 11 12 13 14 15 16 16 17 17 19 20 19 18 19 20 21 23 27 27 30 29 30 28 29 30 31 30 30
6 7 7 7 7 7 7 7 7 7 7 7 5 10 10 11 11 10 10 10 11 13 13 13 15 15 16 17 18 18 18 18 18 19 20 20 24 28 28 31 32 31 30 30 29 28 30
6 7 7 7 7 7 7 7 7 7 7 6 5 6 9 10 9 8 9 10 11 12 12 12 12 14 15 15 17 17 17 17 18 19 18 20 22 26 27 29 29 30 31 30 31 32 28
6 6 6 7 7 7 7 7 7 7 7 6 7 9 10 9 8 8 8 9 10 12 11 11 10 13 13 15 15 15 16 17 17 18 18 19 20 23 28 27 24 24 27 30 30 30 30
6 6 6 6 6 7 7 7 7 7 7 7 6 8 7 9 9 9 9 9 9 10 11 12 10 8 10 12 14 14 14 15 17 16 18 19 20 20 20 21 22 22 24 25 26 29 30
7 6 6 6 6 6 7 7 7 6 7 6 7 7 7 7 8 8 9 9 9 10 9 10 10 8 8 9 11 12 12 14 14 16 16 17 19 18 20 21 22 22 23 24 25 26 27
7 7 6 6 6 6 6 7 7 7 6 6 7 6 5 6 7 7 8 9 9 10 10 10 8 7 10 9 11 12 13 13 14 13 14 15 18 19 19 20 21 23 24 25 26 27 28
7 7 8 7 7 7 6 7 7 7 6 6 6 6 6 7 7 8 9 9 9 9 8 10 10 9 11 12 12 14 13 13 13 14 14 15 15 18 19 19 20 25 26 25 26 28 29
8 8 8 8 8 8 7 6 7 7 7 6 6 5 6 6 8 9 9 9 9 10 9 9 10 10 11 11 12 12 14 13 14 14 15 15 15 17 18 20 22 23 25 25 24 28 28
8 8 8 8 8 8 7 6 7 7 6 6 6 6 6 6 8 9 8 8 7 7 8 9 11 10 10 11 10 11 12 13 15 16 14 15 15 16 18 18 20 24 26 27 23 25 23
9 9 9 9 9 8 8 6 7 7 7 6 6 6 6 6 7 8 8 8 8 6 7 9 10 10 10 10 10 9 11 13 13 14 14 13 13 14 16 17 20 23 24 23 23 26 23
8 8 8 9 9 9 8 6 7 7 7 7 6 6 6 6 7 8 8 8 8 7 7 9 9 9 9 9 10 11 11 13 12 15 15 15 13 13 14 16 16 22 24 23 24 23 23
8 8 9 9 9 9 7 7 7 7 7 7 6 6 6 6 6 7 8 8 8 9 8 8 9 9 8 8 8 8 9 10 11 11 15 13 15 16 16 17 19 21 20 21 21 21 22

GFSGBSN_925_temp_030.txt.gz
Temp
9 9 9 8 8 8 8 8 8 8 8 9 10 10 10 11 11 12 12 11 12 14 14 12 10 10 15 23 27 29 25 25 23 27 29 31 30 31 32 33 33 32 34 35 35 36 36
9 9 8 8 8 8 8 8 8 9 9 9 10 10 10 11 12 11 11 12 14 16 14 10 9 10 18 23 28 27 26 24 25 28 30 31 31 33 33 33 33 35 34 35 36 36 36
9 8 8 8 8 8 8 8 9 9 9 10 10 10 10 11 12 13 13 13 15 15 12 11 10 12 19 26 26 26 26 27 27 28 31 31 32 32 33 32 34 34 33 35 36 36 36
9 8 8 8 7 8 8 9 9 9 9 10 10 10 11 12 13 14 15 13 15 15 12 11 10 14 23 25 25 25 26 27 28 28 31 31 31 32 33 34 33 33 35 35 37 37 37
8 8 7 7 7 8 9 9 9 9 9 9 10 10 12 12 13 14 15 14 11 14 11 10 14 18 26 22 24 26 26 27 28 28 29 30 31 31 33 31 33 34 35 35 36 37 37
7 7 7 7 7 8 8 9 9 9 9 9 9 10 11 12 13 14 15 13 11 12 13 14 16 19 24 28 27 27 27 28 29 29 29 29 30 31 32 32 32 34 34 36 36 37 37
7 7 7 7 7 8 8 8 9 9 9 9 10 11 11 12 12 15 15 18 21 20 20 24 27 27 27 28 26 27 27 28 29 29 29 30 29 30 32 33 34 36 35 35 36 37 36
7 7 7 7 7 7 8 8 9 9 9 9 10 10 11 13 13 13 16 19 14 13 16 22 22 24 26 25 28 29 28 29 29 28 30 30 30 32 33 33 32 33 33 35 36 37 35
7 7 7 7 7 7 7 8 8 9 9 9 10 10 11 13 14 14 15 14 13 13 17 24 24 25 25 26 28 29 30 31 29 29 30 31 32 32 32 32 32 32 33 34 35 36 36
7 7 7 7 7 7 8 8 8 9 9 9 10 10 11 13 15 14 17 14 13 13 20 28 25 25 25 27 27 30 29 31 30 30 31 32 33 32 32 31 32 32 34 34 34 34 34
6 6 7 7 7 8 8 8 8 8 9 9 10 11 12 12 12 15 14 13 12 14 25 28 26 26 27 28 31 29 29 30 31 31 32 31 32 31 31 32 32 32 35 33 33 34 34
6 6 7 7 7 7 7 7 7 8 8 9 10 11 12 13 14 14 13 13 14 20 24 28 27 26 26 27 29 29 29 31 32 32 32 32 34 33 33 33 33 33 33 33 33 34 33
6 7 7 7 7 7 7 8 8 8 9 10 10 11 11 11 14 13 13 17 20 23 27 25 25 26 27 28 28 28 28 28 29 29 30 31 32 33 33 32 33 32 32 31 31 32 33
7 7 7 7 7 8 8 8 8 8 9 10 10 10 11 12 13 13 14 19 19 23 21 21 22 24 25 27 27 29 28 28 29 31 32 31 30 32 33 33 32 32 33 33 31 33 34
6 7 7 7 7 8 8 8 8 8 9 9 10 13 14 14 13 13 17 19 20 18 17 18 21 24 27 26 26 27 28 30 30 32 31 32 32 34 33 33 34 32 33 35 35 34 34
6 7 7 7 8 8 8 8 8 8 9 9 10 14 15 14 13 15 18 16 17 16 17 18 19 21 22 23 24 27 29 25 30 32 29 32 32 34 33 34 34 34 34 33 34 31 32
7 7 7 7 7 7 7 7 8 8 9 9 13 16 14 13 15 18 16 15 15 17 16 17 18 18 20 21 22 25 25 22 23 25 25 30 32 33 33 32 32 33 33 33 35 34 34
7 8 7 7 7 7 7 7 7 8 8 10 13 16 13 13 16 16 15 14 13 16 17 17 17 18 19 19 21 23 23 22 21 24 26 29 30 31 32 34 34 34 33 33 33 32 34
8 8 7 7 7 7 7 7 7 7 7 9 13 14 14 14 14 14 14 14 15 15 15 15 15 16 18 18 19 20 21 20 21 23 23 26 29 30 32 33 34 33 34 34 34 35 33
8 8 6 7 7 7 7 7 7 7 8 9 13 14 15 15 14 14 13 14 14 15 14 15 12 12 15 18 19 19 20 20 20 21 19 21 28 30 31 32 33 32 33 34 34 34 34
8 8 7 7 6 7 7 7 7 7 7 9 12 13 11 13 13 12 12 13 13 13 14 15 11 9 9 14 17 18 18 19 21 20 22 23 25 25 29 26 27 31 33 33 33 33 33
9 8 8 8 8 8 7 7 7 7 7 10 12 10 11 11 11 11 12 12 12 11 12 13 12 12 10 9 11 10 14 18 19 19 20 22 23 23 24 26 26 27 28 30 32 33 33
9 9 9 8 8 8 8 7 7 7 7 9 10 10 8 7 11 11 12 12 11 11 13 12 13 13 13 12 13 14 15 16 17 17 18 19 22 22 25 26 26 25 27 28 29 31 31
9 9 9 9 8 8 8 8 7 7 6 6 8 9 7 8 10 10 11 11 11 11 11 13 13 13 14 15 15 16 17 17 18 18 19 18 19 22 24 25 23 28 31 30 29 30 31
9 9 9 9 8 8 8 7 7 7 7 6 6 7 7 7 10 10 11 10 11 11 12 12 13 14 14 13 15 15 17 17 18 19 19 19 19 21 22 23 26 28 28 28 28 29 31
8 9 9 9 9 9 8 7 7 7 7 6 6 6 7 7 10 10 10 10 10 10 12 13 14 14 14 12 13 13 16 18 18 19 20 20 19 20 22 21 23 27 30 29 29 27 31
8 9 9 9 9 8 7 6 7 7 7 6 6 6 6 7 8 10 9 9 10 10 10 11 12 13 14 13 13 14 15 17 16 17 18 18 18 18 20 20 24 27 27 27 25 27 29
8 9 9 9 9 8 6 7 7 7 7 7 7 6 6 6 8 10 11 9 9 9 8 11 11 12 11 10 13 15 15 17 17 18 19 19 18 19 19 20 20 25 26 25 25 25 26
8 8 9 9 8 8 7 7 7 7 7 7 7 7 6 6 8 9 9 10 10 10 9 8 10 10 11 11 11 12 12 13 14 15 19 17 19 20 20 21 22 24 24 25 23 23 24

GFSGBSN_925_temp_033.txt.gz
Temp
9 8 8 8 8 8 8 8 8 9 10 10 11 11 12 12 12 13 13 14 14 15 15 14 10 14 14 25 29 28 28 26 24 26 31 33 33 34 34 36 37 36 37 38 38 38 39
9 8 8 8 8 8 8 8 8 9 10 10 11 11 11 12 12 13 13 15 15 17 14 12 10 10 18 26 31 31 29 25 27 28 32 34 34 35 35 37 36 37 37 38 38 39 39
8 8 8 8 8 8 8 8 9 9 10 10 11 11 12 13 13 14 13 14 16 15 16 13 11 13 23 28 31 30 29 28 29 30 34 34 35 35 36 35 38 37 36 37 38 38 39
8 8 8 8 7 8 8 8 9 10 10 11 11 12 12 13 14 14 16 14 14 15 16 14 10 16 25 29 28 29 30 30 31 31 33 34 34 36 36 37 36 36 36 36 38 38 39
8 8 7 7 7 9 9 9 10 10 10 11 11 11 12 14 15 16 17 15 12 14 15 11 15 21 28 26 28 29 31 32 32 32 32 34 35 34 35 35 35 36 35 36 38 40 39
7 7 7 7 8 9 9 9 9 9 10 10 11 12 13 14 14 16 18 17 14 13 15 17 20 23 26 30 31 30 31 32 33 33 33 33 34 33 34 34 33 35 36 38 37 39 39
7 7 7 7 7 8 8 8 8 9 9 10 11 12 12 14 15 17 17 22 23 22 22 26 28 28 31 31 30 31 31 32 33 32 31 32 32 32 33 34 36 37 38 38 39 40 39
7 7 7 8 8 8 8 9 9 9 10 10 11 12 12 14 16 17 19 21 19 17 19 23 26 27 28 30 30 32 31 32 32 31 32 32 31 34 35 36 35 36 37 38 39 40 39
7 7 7 8 8 9 9 9 10 10 10 11 11 12 13 15 16 19 20 19 18 18 20 25 28 28 29 30 30 32 32 32 32 31 32 33 34 34 35 35 35 35 36 37 38 39 39
7 7 7 8 8 9 9 9 9 9 10 10 11 12 13 14 17 19 21 18 18 18 20 29 29 30 30 30 29 33 33 33 33 32 33 33 36 35 34 35 36 35 37 37 37 37 37
7 7 8 8 8 8 8 8 9 9 10 10 10 11 13 11 15 20 18 18 18 19 24 32 29 29 31 30 34 31 33 33 33 33 34 33 34 35 34 35 36 35 37 36 36 37 37
7 7 8 8 8 8 8 9 9 9 10 10 11 11 12 16 17 19 18 18 20 21 24 31 30 29 29 30 32 34 32 33 34 34 34 34 36 36 36 36 36 36 36 36 37 36 35
7 7 7 7 7 8 8 9 9 10 11 11 12 12 12 13 18 18 18 21 21 22 30 27 26 29 30 31 30 33 31 30 31 31 32 34 35 36 36 35 36 35 35 33 33 34 34
7 7 7 7 7 8 9 9 10 10 11 11 12 14 15 17 18 18 18 21 19 24 23 23 23 24 25 29 31 32 31 31 31 33 34 33 33 35 36 36 35 34 35 35 32 34 35
7 7 7 8 8 8 8 8 9 10 10 11 11 18 18 18 17 18 20 20 21 21 20 20 22 26 27 30 30 31 31 31 32 33 32 34 34 37 36 36 36 35 35 37 38 38 38
7 7 8 8 8 8 8 8 8 9 10 11 11 18 19 18 18 19 20 19 20 19 19 20 20 24 24 26 28 30 32 32 32 33 34 35 34 37 36 36 36 37 36 35 36 35 35
8 8 8 8 8 8 8 8 8 9 10 12 14 20 18 17 18 21 20 19 19 19 20 19 19 19 20 20 22 27 30 28 28 30 34 34 34 35 37 35 35 35 36 36 37 37 36
9 8 8 8 8 8 8 8 8 8 9 12 17 19 18 17 20 20 19 18 16 19 20 19 19 20 20 19 18 22 25 25 24 26 30 33 33 33 36 36 37 37 36 36 35 35 37
9 9 9 9 9 8 8 7 8 8 8 9 17 19 19 18 17 18 18 18 18 18 18 17 17 17 17 17 16 17 20 23 24 26 26 29 31 31 34 36 36 36 36 37 37 37 36
9 9 8 9 9 9 8 8 8 8 9 9 17 18 19 20 19 17 16 16 16 16 17 17 16 16 15 17 19 19 18 21 23 24 21 23 29 31 34 35 36 34 36 36 37 36 36
9 9 8 9 9 9 8 8 8 7 8 9 15 16 15 15 16 16 15 16 15 14 17 17 16 15 15 15 15 12 16 20 23 22 25 26 26 30 32 35 35 36 35 36 36 36 36
9 9 9 9 9 9 8 8 8 7 8 10 11 12 14 14 15 13 15 15 14 16 15 16 16 15 15 14 15 15 14 16 19 20 22 25 25 28 30 33 31 31 35 36 36 36 37
9 9 9 9 9 9 8 8 7 7 7 7 8 8 10 12 14 13 14 14 14 15 15 15 15 15 15 15 16 18 17 18 19 19 20 21 25 26 27 30 30 29 32 34 36 37 37
9 9 9 9 8 9 8 8 7 7 7 6 6 6 7 10 11 12 14 14 13 14 13 15 16 15 16 18 18 18 19 19 20 20 22 21 22 24 26 28 26 31 34 34 33 35 36
9 9 9 9 8 8 8 7 7 7 7 6 6 6 7 9 11 12 13 14 13 13 14 15 16 17 17 17 17 17 19 19 20 21 21 22 21 23 25 28 30 31 32 33 32 32 34
9 9 9 9 8 8 7 7 7 7 7 7 7 6 6 7 11 11 10 13 13 13 14 13 16 17 16 16 14 15 18 20 21 21 22 22 22 22 24 25 27 30 32 32 32 30 34
9 9 9 8 8 8 7 7 7 7 7 7 7 7 6 6 8 11 8 10 12 12 11 14 14 15 16 13 13 15 18 20 20 21 21 21 21 21 22 23 27 30 31 31 28 28 32
9 9 8 8 8 8 7 7 7 7 8 7 8 7 6 6 7 9 11 10 11 12 10 13 13 15 15 13 14 15 18 19 19 21 21 21 21 21 22 22 23 29 28 28 27 27 27
9 9 8 8 7 7 7 7 7 7 8 7 8 7 7 6 8 10 10 11 11 12 11 9 13 13 14 12 13 14 15 17 17 18 22 20 22 23 23 24 25 26 26 28 27 25 25

GFSGBSN_925_temp_036.txt.gz
Temp
8 8 8 8 9 9 10 10 10 11 11 11 11 12 13 13 14 14 15 16 16 16 15 14 13 11 13 21 26 30 30 28 26 27 29 32 33 33 33 35 36 36 29 33 34 37 35
8 8 8 8 9 9 10 10 10 10 11 11 11 12 13 14 14 15 15 16 16 16 15 13 12 10 16 23 30 31 30 26 28 28 30 32 34 35 35 35 36 38 36 36 36 39 39
8 8 8 8 8 9 9 9 10 10 11 11 12 12 13 14 15 16 16 17 16 16 16 15 11 12 21 26 32 33 32 29 29 29 31 32 35 35 35 35 37 38 37 38 38 39 39
8 8 8 8 8 9 9 9 10 11 11 11 12 12 13 15 15 17 17 17 16 16 15 14 12 14 23 30 29 30 32 32 31 31 31 33 35 36 36 37 37 36 37 36 38 39 39
8 8 8 8 8 9 10 10 10 11 11 11 12 12 14 15 16 17 18 20 18 15 15 12 14 19 26 29 30 31 31 33 32 32 32 34 35 35 35 34 34 36 35 36 37 39 39
8 8 8 8 8 9 9 9 10 10 11 11 12 12 14 15 16 18 19 21 19 15 15 16 19 23 25 30 32 31 32 33 34 34 33 34 34 33 34 34 33 34 35 36 36 39 39
7 7 7 8 8 8 9 9 10 11 11 11 12 12 13 15 16 18 17 22 24 22 23 24 27 27 31 32 33 32 32 33 34 33 31 33 33 33 33 34 35 36 36 37 38 39 39
7 8 8 8 9 9 10 10 11 11 11 12 12 13 13 15 17 18 18 23 22 21 20 23 25 26 27 30 32 33 33 32 32 32 33 32 32 34 35 35 35 35 36 37 39 40 39
7 8 8 8 9 9 10 10 10 10 11 12 12 13 14 15 17 20 23 22 21 22 21 22 26 27 28 29 30 33 33 33 32 32 32 32 33 35 35 35 35 35 35 37 38 40 40
8 8 8 9 9 9 9 9 10 10 11 11 12 13 14 14 18 19 23 21 21 22 20 26 29 30 30 31 30 33 34 33 33 32 33 33 35 34 34 34 35 34 36 37 38 38 37
7 8 9 9 9 9 9 8 9 10 11 11 12 13 13 15 14 20 21 21 21 22 21 33 32 32 33 30 34 31 34 33 32 33 33 33 34 35 34 34 36 35 37 37 37 37 38
8 9 8 8 8 9 9 10 10 11 12 12 13 14 13 16 18 19 21 21 22 21 21 29 31 29 31 31 31 34 32 34 34 34 34 34 36 36 36 36 37 37 37 37 37 37 35
8 9 8 8 8 9 10 10 11 11 12 12 12 14 14 13 19 20 20 22 21 20 26 25 23 25 26 28 31 32 32 32 31 30 32 33 34 36 37 36 37 36 36 34 34 34 34
8 8 8 8 9 9 10 10 11 11 11 12 12 14 16 17 20 20 21 21 19 22 23 23 22 23 24 27 29 31 32 32 32 32 32 32 32 35 37 36 36 35 36 34 32 33 34
8 9 9 9 9 9 9 10 10 10 11 12 13 16 20 20 20 20 21 20 21 20 21 20 21 23 24 25 24 29 31 32 32 32 32 34 33 36 37 37 37 35 35 37 36 37 36
8 9 9 10 9 9 9 9 9 10 10 12 10 15 18 20 20 21 21 20 22 22 21 21 19 21 20 21 21 22 27 33 33 33 34 34 33 36 37 37 37 37 37 35 36 33 34
9 9 9 10 9 9 9 9 9 9 10 12 14 21 21 20 20 21 20 21 21 21 21 20 20 20 20 15 17 19 23 23 27 30 34 33 34 35 37 36 35 36 36 36 36 36 35
9 9 9 10 9 9 9 9 9 9 8 11 15 19 21 20 20 22 21 20 18 19 19 20 20 20 18 15 16 15 18 19 22 26 27 33 33 32 34 38 37 37 36 36 34 34 37
9 9 9 9 9 9 9 9 8 9 9 8 15 19 21 20 19 19 20 19 19 17 17 16 18 19 18 17 15 15 14 18 21 23 24 26 30 31 32 36 38 36 36 36 37 37 35
9 9 9 9 9 9 8 9 8 8 9 8 15 16 18 20 19 18 18 18 17 18 16 14 16 19 18 17 18 12 14 16 19 22 22 24 27 30 32 34 37 35 36 37 36 35 36
9 9 9 9 9 9 8 8 8 8 9 9 15 15 14 15 16 16 17 17 15 16 13 16 17 15 15 15 15 14 13 16 18 21 24 26 26 29 32 35 37 36 36 36 36 37 35
9 9 9 9 9 9 9 8 7 7 8 11 10 9 10 12 15 15 15 16 15 17 17 16 16 16 16 16 16 15 15 15 14 19 21 24 25 27 29 31 33 34 36 36 37 37 37
9 9 9 9 9 9 9 8 7 7 7 10 10 8 7 9 13 13 14 15 16 17 17 17 17 17 16 17 17 18 18 18 17 18 20 21 23 25 26 30 31 32 34 36 37 37 37
9 9 9 9 9 9 8 7 7 7 7 8 9 6 6 8 12 13 13 13 14 15 15 16 17 16 17 19 19 19 20 20 20 20 21 21 21 23 25 27 27 32 35 35 36 37 38
9 9 9 8 9 8 8 7 7 7 7 7 7 6 6 7 10 12 13 12 13 14 16 15 16 15 14 18 17 15 18 19 20 21 21 22 22 23 24 26 29 31 33 34 34 35 37
9 9 9 9 9 8 7 7 7 8 8 7 7 7 6 6 8 11 10 11 9 11 15 16 16 18 18 16 16 15 17 20 20 21 23 23 23 22 24 25 27 31 34 35 35 32 34
9 8 8 9 8 6 7 7 7 8 8 7 7 7 6 6 7 9 8 9 12 12 12 14 15 16 18 14 13 14 17 20 20 21 21 21 21 21 22 23 28 28 30 33 30 26 28
9 8 9 8 7 7 7 7 7 8 8 7 8 7 6 6 7 9 10 9 10 10 9 13 14 11 14 13 13 11 15 15 19 21 20 22 21 21 22 23 23 27 29 26 25 26 26
8 8 8 6 7 7 7 7 7 8 8 7 8 8 7 6 8 8 8 9 9 11 10 10 12 12 13 11 12 14 14 17 18 18 22 19 20 22 23 24 26 27 26 27 27 26 25

GFSGBSN_925_temp_042.txt.gz
Temp
8 8 9 9 10 10 10 11 11 12 12 13 13 14 15 16 17 17 17 17 17 18 17 15 13 11 12 14 17 28 27 28 23 24 24 24 24 25 25 27 27 28 29 30 31 32 31
8 8 8 9 10 10 11 11 11 12 13 13 13 14 15 16 17 18 18 18 19 18 17 13 11 11 12 16 25 26 26 27 24 24 24 25 25 26 27 27 28 30 30 32 33 31 31
8 8 8 10 10 11 11 11 11 12 13 13 14 14 15 16 18 18 19 20 20 19 18 14 11 11 12 18 26 26 25 27 26 25 24 26 27 27 28 28 30 30 30 32 31 32 30
8 9 10 10 11 11 11 11 12 13 13 14 14 15 15 16 18 18 20 21 21 19 17 14 12 12 12 23 24 24 24 25 24 26 27 26 27 26 27 28 29 29 29 29 32 32 33
8 9 10 10 11 11 11 11 11 12 13 13 14 15 15 16 18 18 20 21 21 18 17 12 12 12 14 23 22 26 25 26 25 25 26 28 27 25 27 26 25 27 27 29 31 33 33
8 9 10 10 10 10 11 12 12 13 13 13 14 14 15 16 17 18 20 21 21 18 16 13 15 14 18 25 24 25 28 27 25 25 25 26 24 23 25 23 25 26 27 29 30 33 33
9 9 10 10 10 11 12 13 13 13 13 13 13 14 14 16 18 19 19 21 17 16 19 18 18 19 22 23 24 25 27 27 27 25 23 24 24 23 25 25 27 28 28 29 30 33 33
10 10 10 10 10 11 12 12 13 12 12 13 13 13 14 16 18 18 18 16 18 19 15 20 20 20 21 21 21 23 26 26 25 25 25 24 24 26 27 27 28 28 28 29 30 32 32
10 9 10 10 11 11 11 11 11 12 13 14 14 15 14 16 18 18 17 19 19 19 15 18 20 21 20 21 21 22 24 26 26 25 26 25 27 28 28 28 28 28 27 29 29 31 32
9 9 10 10 10 10 10 11 11 13 14 14 14 15 15 15 18 16 17 20 19 19 13 18 22 23 23 22 22 26 26 24 27 26 26 26 28 28 28 28 29 27 30 30 30 29 28
10 10 10 10 10 10 11 11 11 13 14 14 15 16 15 14 14 13 19 19 19 18 18 23 21 24 22 21 22 22 23 25 25 26 26 27 28 28 28 28 30 29 30 30 30 29 29
11 10 10 10 10 11 11 11 12 12 13 15 15 16 15 14 14 20 18 18 18 15 17 21 21 20 21 20 22 21 21 22 26 25 27 27 29 29 29 30 30 31 30 29 29 27 26
10 10 10 10 10 10 10 11 11 12 13 14 15 16 16 17 17 19 18 15 14 15 21 19 18 18 19 19 20 20 19 18 16 22 24 27 28 30 30 29 29 29 26 25 26 26 26
10 10 10 10 10 10 10 10 11 11 12 13 15 16 15 17 19 19 16 13 15 18 17 19 18 18 18 18 18 19 18 16 17 15 18 25 25 28 30 29 29 28 26 23 24 24 27
10 10 10 10 10 10 10 9 10 11 12 13 14 16 17 20 19 18 12 12 15 16 17 17 17 16 16 18 17 17 16 16 17 15 13 15 25 29 30 31 30 28 27 26 24 25 25
10 10 10 9 10 10 10 9 9 10 11 12 9 11 14 17 19 17 12 13 16 17 17 16 14 15 14 15 15 15 16 18 16 16 15 14 16 26 30 31 31 29 28 27 23 25 25
10 9 9 9 9 9 10 9 9 9 10 12 10 8 17 18 19 12 12 14 17 18 17 15 14 14 14 14 15 15 16 17 16 15 15 14 14 21 27 28 29 28 29 28 27 23 24
9 9 9 9 9 9 9 9 8 9 8 10 7 8 16 16 12 10 12 14 16 16 16 16 15 15 14 13 14 15 15 15 14 14 12 14 13 14 22 27 29 31 28 27 28 25 23
9 9 9 8 9 9 9 9 8 9 8 6 5 7 15 15 9 9 12 14 15 14 14 15 14 14 14 13 13 13 14 15 15 13 11 11 14 13 21 25 27 27 29 28 25 25 25
9 9 9 8 8 8 8 8 7 8 8 8 5 8 8 8 9 10 9 12 13 15 15 15 14 14 13 12 13 13 13 14 15 14 13 10 10 12 14 18 21 25 29 29 27 27 28
9 9 9 9 8 8 7 7 7 8 8 8 6 7 7 6 8 7 9 11 13 13 13 13 14 13 13 11 12 13 13 14 15 13 12 9 9 12 14 17 20 22 27 29 29 31 29
9 9 9 8 8 8 7 7 7 8 8 8 7 7 5 8 7 8 9 11 11 11 12 12 11 12 12 10 11 11 12 12 12 12 10 9 10 11 14 21 23 25 29 29 30 31 28
9 9 8 8 8 7 7 7 7 7 7 7 9 7 7 8 8 7 10 10 10 12 10 12 11 11 11 11 12 11 11 13 13 12 11 10 11 11 14 20 26 25 24 29 30 31 31
9 9 8 8 7 7 7 7 7 7 7 7 8 7 6 7 8 8 8 8 9 9 9 11 12 10 11 12 11 11 12 13 15 15 13 11 10 11 14 18 23 24 24 24 24 23 23
9 8 8 7 7 7 7 7 7 8 7 7 7 7 6 7 7 8 8 9 8 8 9 11 12 12 10 9 9 9 12 13 14 14 13 13 13 12 14 18 23 22 21 22 21 21 22
9 8 7 6 7 6 7 7 7 8 8 7 7 7 6 6 7 8 8 8 7 8 9 11 11 10 10 10 10 10 11 10 13 14 15 14 13 13 14 18 19 17 19 23 23 18 21
8 7 6 6 6 6 6 7 7 8 8 7 7 7 6 6 7 7 8 7 7 8 8 9 9 8 9 8 9 10 11 11 12 12 13 12 12 14 17 18 16 16 18 24 19 19 20
7 6 6 6 6 6 7 7 7 8 8 7 8 8 7 6 7 8 9 8 8 7 8 9 8 8 8 7 9 9 9 10 10 11 11 11 12 12 13 16 14 16 16 16 16 19 19
6 6 7 7 6 6 7 7 7 8 8 8 7 8 7 6 7 7 8 8 7 7 8 8 8 9 9 7 7 9 9 10 11 11 13 11 10 10 11 13 15 16 14 15 16 16 16

GFSGBSN_925_temp_048.txt.gz
Temp
8 8 8 9 11 13 13 13 13 14 14 14 15 15 16 16 16 17 18 18 19 19 19 17 14 10 12 15 17 21 23 21 20 21 22 21 22 21 22 23 24 24 26 26 27 27 27
8 8 9 11 12 12 12 13 13 14 14 15 15 16 17 17 17 18 19 19 19 19 18 18 16 11 12 18 21 21 22 20 20 21 22 22 22 23 23 23 24 26 26 27 27 27 27
8 8 9 10 12 12 12 13 14 14 14 14 15 16 17 18 18 18 20 19 19 18 17 17 13 12 12 17 21 21 20 20 20 21 21 23 24 24 24 25 25 26 25 26 27 28 27
8 9 9 10 11 12 12 12 13 14 14 14 14 16 16 17 18 19 20 19 19 18 17 13 12 12 13 21 21 23 21 21 21 21 23 24 25 24 24 25 26 25 25 25 27 28 29
10 11 11 11 11 12 12 12 13 13 14 14 14 15 16 16 16 18 20 20 18 16 15 12 12 12 19 22 21 22 22 22 21 21 23 25 24 23 24 23 22 23 23 24 27 29 30
10 10 10 10 10 11 12 13 13 14 14 15 15 15 17 17 18 19 19 19 17 15 13 13 13 14 19 21 21 21 22 22 21 20 22 23 20 20 18 20 19 22 24 25 27 29 29
11 11 11 10 10 11 12 13 13 14 14 15 15 15 16 18 18 19 19 17 12 14 15 16 16 17 19 21 21 22 23 22 22 20 19 20 19 20 22 22 24 24 25 26 27 29 28
11 11 10 11 11 12 12 13 13 14 14 13 13 13 14 18 18 19 19 13 15 15 13 16 16 17 18 19 19 21 23 22 21 20 20 19 19 22 23 22 23 24 25 25 26 29 28
11 11 11 11 11 12 12 12 12 12 12 13 14 14 13 17 18 18 17 16 16 15 13 15 18 19 19 19 20 20 20 21 21 20 20 20 21 23 23 22 22 22 22 24 27 28 29
11 11 11 11 11 11 11 11 12 12 13 14 14 15 14 17 17 17 17 16 16 15 13 19 19 20 20 19 20 22 21 20 22 21 21 21 23 24 23 23 22 19 24 25 26 26 25
10 10 10 10 11 11 11 12 12 12 13 14 15 15 16 15 14 14 17 16 16 16 16 19 18 21 17 18 19 19 19 18 20 22 22 22 22 23 23 23 23 23 24 24 25 25 26
10 10 10 10 10 10 11 11 11 12 12 13 15 15 16 16 15 16 16 16 15 14 16 17 18 17 16 16 18 17 16 16 17 17 20 21 24 24 25 25 25 26 26 24 23 22 22
10 10 9 10 10 10 10 10 11 12 12 13 15 16 16 14 13 15 16 13 14 14 17 16 16 16 16 15 15 16 15 14 12 13 14 18 23 24 25 24 25 24 23 20 21 21 24
10 9 9 9 10 10 10 10 10 11 12 12 14 15 15 14 15 16 16 13 16 16 15 16 16 15 15 14 15 15 15 13 14 12 12 13 20 23 24 24 23 24 22 19 19 20 25
9 9 9 9 9 9 9 10 10 10 11 12 13 14 15 14 16 16 12 11 13 15 16 15 15 14 14 14 15 14 15 13 14 13 12 11 15 17 19 21 24 23 22 22 21 20 21
9 9 9 9 9 9 9 9 9 9 10 11 10 9 13 15 16 16 11 13 14 15 15 14 14 14 13 13 13 13 14 14 14 14 14 13 11 15 17 20 23 23 24 23 19 21 21
9 9 9 9 9 9 8 8 8 8 9 11 9 9 14 15 15 9 11 11 14 15 15 14 13 13 13 13 13 13 14 13 13 13 14 12 11 14 16 19 22 23 24 23 23 21 21
9 9 9 9 9 8 8 7 8 8 8 8 5 10 13 14 9 5 8 9 12 14 14 15 14 13 12 12 12 13 13 13 14 14 12 11 11 13 14 17 17 18 19 21 25 22 19
9 9 9 9 8 8 7 7 7 7 7 6 4 4 13 12 7 6 6 9 11 13 13 13 13 14 13 11 12 12 13 14 14 13 11 12 12 10 15 16 15 16 17 15 15 21 24
9 8 8 8 7 7 7 7 7 7 7 7 4 7 6 5 4 6 7 8 10 13 12 12 12 11 12 11 11 12 12 14 13 13 13 11 9 10 12 14 13 13 15 15 15 16 23
9 8 8 8 7 7 7 7 7 7 7 7 3 5 5 5 6 7 7 8 9 11 11 12 12 10 10 9 10 10 10 12 11 13 10 8 8 10 10 11 12 13 13 14 15 16 17
8 8 7 7 7 7 7 7 7 7 8 7 5 6 4 5 8 8 8 8 9 10 9 10 10 11 9 8 9 10 10 10 9 9 8 7 8 10 10 12 13 14 15 16 17 17 18
8 7 7 7 7 7 7 7 7 7 8 7 6 6 7 8 9 8 8 8 9 8 9 9 9 8 7 8 9 9 8 8 9 8 7 8 8 10 10 12 13 16 17 19 18 18 18
8 7 7 7 6 7 7 7 8 7 7 7 7 7 7 8 8 8 8 8 9 8 9 8 8 8 9 9 7 9 7 8 8 8 6 7 7 9 9 12 15 16 18 20 18 17 16
7 6 7 6 7 7 7 7 8 8 7 7 7 7 7 7 8 8 9 9 9 8 8 9 10 10 7 8 8 7 8 8 8 8 7 7 8 9 11 12 15 18 16 15 17 17 15
7 7 6 6 6 7 7 8 8 8 7 7 7 7 6 7 8 9 8 8 8 7 8 8 9 8 9 8 8 8 10 6 9 9 9 7 9 9 11 12 16 14 14 15 17 16 15
7 7 7 6 7 7 7 7 8 8 8 7 8 7 6 7 8 8 8 8 8 6 6 7 9 7 7 7 8 9 9 8 9 9 9 9 9 9 10 12 12 12 12 15 18 16 14
7 7 7 7 7 7 7 8 8 8 8 8 8 8 7 7 8 8 8 8 8 7 7 8 8 7 7 8 8 8 8 8 9 9 10 9 9 10 10 12 14 11 14 14 13 13 13
9 7 7 7 7 7 7 8 8 8 8 8 8 7 7 7 7 8 8 9 7 7 8 8 8 8 8 8 7 7 8 8 8 10 8 10 9 10 10 10 9 10 11 11 11 11 12